Weather History for KLAR - January, 2014

Change the Weather History Date:

Thursday, January 30, 2014

  Actual Average Record
Temperature  
Mean Temperature 27 °F 22 °F  
Max Temperature 32 °F 33 °F 56 °F (1986)
Min Temperature 22 °F 10 °F -24 °F (1980)
Degree Days  
Heating Degree Days 38 43  
Month to date heating degree days 1288 1291  
Since 1 July heating degree days 4811 4964  
Cooling Degree Days 0 0  
Month to date cooling degree days 0 0  
Year to date cooling degree days 0 0  
Moisture  
Dew Point 23 °F    
Average Humidity 84    
Maximum Humidity 92    
Minimum Humidity 75    
Precipitation  
Precipitation 0.02 in 0.01 in 0.08 in (2014)
Month to date precipitation 0.19 0.26  
Year to date precipitation 0.19 0.26  
Sea Level Pressure  
Sea Level Pressure 29.61 in    
Wind  
Wind Speed 14 mph (West)    
Max Wind Speed 32 mph    
Max Gust Speed 39 mph    
Visibility 5 miles    
Events Fog , Snow    
T = Trace of Precipitation, MM = Missing Value Source: NWS Daily Summary

Daily Weather History Graph

Daily Weather History Graph

Search for Another Location

Airport or City:

Trip Planner

Search our weather history database for the weather conditions in past years. The results will help you decide how hot, cold, wet, or windy it might be!

Date:

Astronomy

Jan. 30, 2014 Rise Set
Actual Time 7:15 AM MST 5:16 PM MST
Civil Twilight 6:46 AM MST 5:46 PM MST
Nautical Twilight 6:13 AM MST 6:19 PM MST
Astronomical Twilight 5:40 AM MST 6:51 PM MST
Moon 6:43 AM MST (1/30) 5:32 PM MST (1/30)
Length of Visible Light 10h 59m
Length of Day
10h 00m
Waning Crescent, 0% of the Moon is Illuminated
Jan 30
Waning Crescent
Jan 30
New
Feb 6
First Quarter
Feb 14
Full
Feb 22
Last Quarter

Hourly Weather History & Observations

Time (MST) Temp. Windchill Dew Point Humidity Pressure Visibility Wind Dir Wind Speed Gust Speed Precip Events Conditions
12:12 AM 30.2 °F 15.4 °F 28.4 °F 93% 29.52 in 0.8 mi West 28.8 mph 38.0 mph 0.00 in Snow Light Snow
12:22 AM 30.2 °F 16.8 °F 28.4 °F 93% 29.52 in 1.8 mi West 23.0 mph - 0.00 in Snow Light Snow
12:30 AM 30.2 °F 17.4 °F 28.4 °F 93% 29.53 in 2.5 mi West 20.7 mph - 0.00 in Snow Light Snow
12:41 AM 30.2 °F 17.8 °F 28.4 °F 93% 29.54 in 1.2 mi West 19.6 mph - 0.00 in Snow Light Snow
12:49 AM 30.2 °F 18.9 °F 28.4 °F 93% 29.55 in 0.8 mi NW 16.1 mph - 0.00 in Snow Light Snow
12:53 AM 30.0 °F 16.3 °F 28.0 °F 92% 29.52 in 0.5 mi NNW 24.2 mph 31.1 mph 0.00 in Fog , Snow Snow
1:02 AM 28.4 °F 13.8 °F 26.6 °F 93% 29.55 in 0.2 mi NW 25.3 mph 39.1 mph 0.01 in Fog , Snow Heavy Snow
1:09 AM 28.4 °F 13.8 °F 26.6 °F 93% 29.55 in 0.2 mi NW 25.3 mph - 0.01 in Fog , Snow Snow
1:49 AM 28.4 °F 15.1 °F 26.6 °F 93% 29.57 in 0.5 mi NW 20.7 mph - 0.02 in Fog , Snow Snow
1:53 AM 28.0 °F 14.3 °F 27.0 °F 96% 29.56 in 0.8 mi WNW 21.9 mph 32.2 mph 0.02 in Snow Light Snow
2:00 AM 28.4 °F 12.3 °F 26.6 °F 93% 29.57 in 1.8 mi WNW 32.2 mph 38.0 mph 0.00 in Snow Light Snow
2:25 AM 28.4 °F 12.5 °F 24.8 °F 86% 29.59 in 0.8 mi WNW 31.1 mph 39.1 mph 0.00 in Snow Light Snow
2:53 AM 27.0 °F 12.8 °F 25.0 °F 92% 29.59 in 0.5 mi West 21.9 mph - 0.00 in Fog , Snow Light Snow
3:03 AM 26.6 °F 12.4 °F 24.8 °F 93% 29.59 in 0.8 mi West 21.9 mph - 0.00 in Snow Light Snow
3:31 AM 26.6 °F 13.4 °F 24.8 °F 93% 29.60 in 0.5 mi West 18.4 mph - 0.00 in Fog , Snow Snow
3:53 AM 26.1 °F 11.6 °F 24.1 °F 92% 29.59 in 0.5 mi West 21.9 mph - 0.00 in Fog , Snow Snow
4:16 AM 26.6 °F 13.4 °F 24.8 °F 93% 29.60 in 0.2 mi West 18.4 mph - 0.00 in Fog , Snow Snow
4:29 AM 26.6 °F 13.8 °F 24.8 °F 93% 29.60 in 0.8 mi West 17.3 mph - 0.00 in Snow Light Snow
4:48 AM 26.6 °F 13.8 °F 24.8 °F 93% 29.61 in 0.8 mi West 17.3 mph - 0.00 in Snow Light Snow
4:53 AM 26.1 °F 12.7 °F 24.1 °F 92% 29.61 in 0.8 mi West 18.4 mph - 0.00 in Snow Light Snow
5:05 AM 26.6 °F 13.4 °F 23.0 °F 86% 29.60 in 1.5 mi West 18.4 mph - 0.00 in Snow Light Snow
5:11 AM 26.6 °F 13.4 °F 23.0 °F 86% 29.60 in 3.0 mi West 18.4 mph - 0.00 in Snow Light Snow
5:18 AM 26.6 °F 14.7 °F 23.0 °F 86% 29.61 in 5.0 mi West 15.0 mph - 0.00 in   Overcast
5:53 AM 26.1 °F 14.0 °F 21.9 °F 84% 29.61 in 10.0 mi West 15.0 mph - 0.00 in   Overcast
6:53 AM 25.0 °F 12.2 °F 21.0 °F 85% 29.63 in 10.0 mi West 16.1 mph - N/A   Overcast
7:53 AM 25.0 °F 13.6 °F 19.9 °F 81% 29.62 in 10.0 mi West 12.7 mph - N/A   Overcast
8:53 AM 26.1 °F 13.6 °F 19.9 °F 78% 29.63 in 10.0 mi West 16.1 mph - N/A   Overcast
9:53 AM 26.1 °F 16.8 °F 21.0 °F 81% 29.65 in 10.0 mi WSW 9.2 mph - N/A   Overcast
10:53 AM 28.0 °F 16.5 °F 21.0 °F 75% 29.65 in 10.0 mi WSW 15.0 mph - N/A   Overcast
11:53 AM 28.0 °F 16.1 °F 21.0 °F 75% 29.64 in 10.0 mi WSW 16.1 mph - N/A   Overcast
12:53 PM 28.9 °F 17.7 °F 21.0 °F 72% 29.61 in 10.0 mi WSW 15.0 mph - N/A   Overcast
1:53 PM 28.0 °F 17.0 °F 21.0 °F 75% 29.64 in 10.0 mi WSW 13.8 mph - N/A   Overcast
2:53 PM 28.0 °F 16.1 °F 21.0 °F 75% 29.64 in 10.0 mi WSW 16.1 mph - N/A   Overcast
3:53 PM 28.0 °F 18.6 °F 21.0 °F 75% 29.67 in 10.0 mi WSW 10.4 mph - N/A   Overcast
4:53 PM 27.0 °F 17.3 °F 19.9 °F 75% 29.67 in 10.0 mi SW 10.4 mph - N/A   Overcast
5:53 PM 26.1 °F 15.0 °F 21.0 °F 81% 29.69 in 10.0 mi SW 12.7 mph - N/A   Overcast
6:53 PM 25.0 °F 14.2 °F 21.0 °F 85% 29.70 in 10.0 mi South 11.5 mph - N/A   Overcast
7:53 PM 24.1 °F 15.2 °F 19.9 °F 84% 29.70 in 10.0 mi South 8.1 mph - N/A   Overcast
8:53 PM 25.0 °F 16.3 °F 19.9 °F 81% 29.68 in 10.0 mi South 8.1 mph - N/A   Overcast
9:53 PM 24.1 °F 18.2 °F 21.0 °F 88% 29.69 in 6.0 mi South 4.6 mph - 0.00 in   Overcast
10:53 PM 23.0 °F - 19.0 °F 85% 29.68 in 10.0 mi North - - 0.00 in   Overcast
11:53 PM 23.0 °F - 19.0 °F 85% 29.67 in 10.0 mi Calm Calm - N/A   Overcast